[[{"header":{"parameterUnit":"m.s-1","parameterCategory":1,"la1":30.2991,"la2":30.254,"lo1":-89.0895,"lo2":-89.0444,"dy":0.0017,"dx":0.0017,"nx":28,"ny":28,"refTime":"2025-05-16T09:00:00:Z","depth":0,"parameterNumber":2,"parameterNumberName":"U-component_of_WINDS"},"data":[0,0,0,0,0,0,0,0,0,0,0,0,0,0,0,0,0,0,0,0,0,0,0,0,0,0,0,0,0,0,0,0,0,0,0,0,0,0,0,0,0,0,0,0,0,0,0,0,0,0,0,0,0,0,0,0,0,0,-0.6524,-0.6523,0,-0.6437,-0.6436,-0.6435,-0.6404,-0.6404,-0.6404,-0.6404,-0.6316,-0.6313,-0.6311,0,0,0,0,0,0,0,0,0,0,0,0,0,-0.6663,-0.666,-0.6524,-0.6523,-0.6522,-0.6437,-0.6436,-0.6435,-0.6403,-0.6404,-0.6404,-0.6405,-0.6317,-0.6314,-0.631,0,0,0,0,0,0,0,0,0,0,0,0,0,-0.6592,-0.6659,-0.6524,-0.6496,-0.6493,-0.6437,-0.6436,-0.6435,-0.6403,-0.6404,-0.6404,-0.6405,-0.6318,-0.6314,-0.631,-0.6277,0,0,-0.6298,-0.6296,0,0,0,0,0,0,0,0,-0.6596,-0.6587,-0.6501,-0.6498,-0.6494,-0.6432,-0.6452,-0.6382,-0.6403,-0.6437,-0.6404,-0.6405,-0.6354,-0.6347,-0.633,-0.6272,-0.6269,-0.6297,-0.6295,-0.6293,-0.6292,0,0,0,0,0,0,0,-0.6601,-0.659,-0.649,-0.65,-0.6496,-0.6488,-0.6478,-0.6439,-0.6394,-0.6434,-0.6432,-0.6422,-0.6352,-0.6334,-0.6327,-0.6267,-0.6298,-0.6294,-0.6292,-0.629,-0.6176,-0.6175,0,0,0,0,0,0,-0.661,-0.6595,-0.6493,-0.6487,-0.6547,-0.6485,-0.6474,-0.6451,-0.6395,-0.6386,-0.6422,-0.6421,-0.634,-0.6332,-0.6324,-0.628,-0.6293,-0.629,-0.6287,-0.6176,-0.6176,-0.6175,0,0,0,0,0,0,-0.6613,-0.6602,-0.6496,-0.654,-0.6526,-0.6482,-0.6457,-0.6449,-0.6431,-0.6385,-0.6377,-0.6411,-0.634,-0.633,-0.6288,-0.6276,-0.6288,-0.6284,-0.6177,-0.6176,-0.6175,-0.6192,0,0,0,0,0,0,-0.6618,-0.6603,-0.659,-0.654,-0.6524,-0.6462,-0.6456,-0.6447,-0.6424,-0.6422,-0.6373,-0.6365,-0.634,-0.6294,-0.6284,-0.6271,-0.6281,-0.6178,-0.6177,-0.6176,-0.6192,-0.6191,-0.6191,0,0,0,0,0,-0.6623,-0.6599,-0.659,-0.6578,-0.6507,-0.6461,-0.6452,-0.6423,-0.6423,-0.641,-0.638,-0.6367,-0.6279,-0.629,-0.6279,-0.6264,-0.6179,-0.6177,-0.6176,-0.6192,-0.6191,-0.6191,0,0,0,0,0,0,-0.665,-0.6592,-0.6581,-0.654,-0.6506,-0.6456,-0.6438,-0.6423,-0.6388,-0.6388,-0.6354,-0.6343,-0.6303,-0.628,-0.6293,-0.6228,-0.6228,-0.6224,-0.6245,-0.6243,-0.6243,-0.6249,-0.6278,0,0,0,0,0,-0.6651,-0.6618,-0.657,-0.6539,-0.6522,-0.6483,-0.6462,-0.6442,-0.6405,-0.6391,-0.6358,-0.6322,-0.6287,-0.6264,-0.6229,-0.6189,-0.6176,-0.6173,-0.6172,-0.6172,-0.6169,-0.6144,-0.6141,-0.617,-0.617,-0.617,0,0,-0.6653,-0.6617,-0.6599,-0.6543,-0.6514,-0.648,-0.6471,-0.6437,-0.6411,-0.6385,-0.6343,-0.6318,-0.6276,-0.6235,-0.6215,-0.6214,-0.6158,-0.617,-0.617,-0.6167,-0.6142,-0.6139,-0.6137,-0.6169,-0.6169,-0.6169,0,0,-0.664,-0.661,-0.658,-0.655,-0.6506,-0.648,-0.6473,-0.6424,-0.6406,-0.6363,-0.6343,-0.6312,-0.6252,-0.6222,-0.6199,-0.6172,-0.6158,-0.6162,-0.6159,-0.6135,-0.6132,-0.613,-0.6119,-0.6116,-0.6159,-0.6159,-0.6159,0,-0.6648,-0.6597,-0.6566,-0.6532,-0.6507,-0.6482,-0.645,-0.6423,-0.637,-0.6353,-0.6353,-0.6275,-0.6245,-0.6195,-0.6188,-0.6171,-0.6161,-0.6167,-0.6135,-0.6133,-0.613,-0.6119,-0.6115,-0.616,-0.616,-0.616,-0.616,0,-0.6609,-0.6574,-0.6554,-0.6502,-0.6475,-0.6443,-0.6406,-0.6383,-0.6365,-0.6339,-0.6295,-0.6258,-0.6214,-0.6201,-0.6184,-0.6148,-0.6148,-0.6142,-0.6141,-0.6128,-0.6117,-0.6113,-0.6161,-0.616,-0.616,-0.616,0,0,-0.6611,-0.6541,-0.6534,-0.6509,-0.6457,-0.6429,-0.6395,-0.6351,-0.633,-0.6294,-0.6264,-0.6212,-0.6206,-0.618,-0.6159,-0.6138,-0.6117,-0.6134,-0.6133,-0.6131,-0.6073,-0.6077,-0.6072,-0.6108,-0.6107,-0.6106,-0.6076,0,-0.659,-0.6527,-0.6497,-0.6447,-0.6413,-0.6387,-0.6357,-0.6322,-0.6296,-0.6263,-0.6235,-0.6198,-0.6193,-0.6177,-0.6155,-0.6124,-0.6105,-0.6126,-0.6078,-0.6077,-0.6088,-0.6067,-0.6071,-0.6045,-0.6071,-0.607,-0.607,0,-0.6558,-0.652,-0.6466,-0.6416,-0.64,-0.6374,-0.633,-0.6299,-0.6258,-0.624,-0.621,-0.619,-0.6152,-0.6154,-0.6101,-0.6116,-0.6095,-0.6076,-0.6075,-0.6068,-0.6072,-0.6058,-0.6036,-0.6031,-0.6063,-0.6064,-0.6064,0,-0.6563,-0.6499,-0.6457,-0.6437,-0.6378,-0.6359,-0.6334,-0.6293,-0.6268,-0.623,-0.6212,-0.6171,-0.6148,-0.6116,-0.6084,-0.6089,-0.6033,-0.6033,-0.6016,-0.6017,-0.6005,-0.6006,-0.5977,-0.5994,-0.5994,-0.5994,-0.5994,0,-0.6542,-0.651,-0.6459,-0.6433,-0.6396,-0.6361,-0.6325,-0.6298,-0.6261,-0.623,-0.6205,-0.6176,-0.6137,-0.6102,-0.6078,-0.6036,-0.6026,-0.601,-0.6004,-0.6012,-0.6014,-0.5997,-0.5997,-0.5993,-0.5993,-0.5993,-0.5993,0,-0.6542,-0.6506,-0.6459,-0.6406,-0.6392,-0.6367,-0.6321,-0.6295,-0.6268,-0.6228,-0.6216,-0.6173,-0.6131,-0.6096,-0.6042,-0.6025,-0.5981,-0.5975,-0.5995,-0.5991,-0.5976,-0.5977,-0.5934,-0.5925,-0.5949,-0.5949,-0.5949,0,-0.6531,-0.6505,-0.6448,-0.6425,-0.6399,-0.6362,-0.6335,-0.63,-0.6273,-0.6223,-0.6203,-0.6159,-0.6122,-0.6056,-0.6019,-0.5977,-0.5968,-0.5956,-0.5962,-0.597,-0.5966,-0.5967,-0.5964,-0.5955,-0.5955,-0.5955,-0.5955,0,-0.6514,-0.6497,-0.6459,-0.6414,-0.6383,-0.6346,-0.6309,-0.6292,-0.6249,-0.622,-0.6176,-0.6148,-0.6091,-0.6047,-0.6,-0.5974,-0.5957,-0.5953,-0.5947,-0.5954,-0.5966,-0.5958,-0.5992,-0.5954,-0.5954,-0.5954,-0.5955,-0.5955,-0.6506,-0.6481,-0.6437,-0.6395,-0.6363,-0.6328,-0.63,-0.6268,-0.623,-0.6181,-0.6162,-0.6117,-0.6074,-0.6009,-0.5983,-0.5946,-0.5944,-0.5936,-0.5933,-0.5931,-0.5931,-0.5973,-0.5938,-0.5938,-0.5938,-0.5938,-0.5938,0,-0.6487,-0.6456,-0.6418,-0.6366,-0.6332,-0.6318,-0.6276,-0.6249,-0.6209,-0.617,-0.6134,-0.6082,-0.6039,-0.5998,-0.5953,-0.5932,-0.5922,-0.5921,-0.5921,-0.5915,-0.5936,-0.5946,-0.5929,-0.5929,-0.5929,-0.5929,-0.5929,-0.5929,-0.6473,-0.6429,-0.6406,-0.6345,-0.6315,-0.6269,-0.6246,-0.6213,-0.6182,-0.6125,-0.6088,-0.6062,-0.6022,-0.5973,-0.5932,-0.5921,-0.5905,-0.5905,-0.5892,-0.5913,-0.5914,-0.5915,-0.5924,-0.5902,-0.5902,-0.5873,-0.5873,-0.5873]},{"header":{"parameterUnit":"m.s-1","parameterCategory":1,"la1":30.2991,"la2":30.254,"lo1":-89.0895,"lo2":-89.0444,"dy":0.0017,"dx":0.0017,"nx":28,"ny":28,"refTime":"2025-05-16T09:00:00:Z","depth":0,"parameterNumber":3,"parameterNumberName":"V-component_of_WINDS"},"data":[0,0,0,0,0,0,0,0,0,0,0,0,0,0,0,0,0,0,0,0,0,0,0,0,0,0,0,0,0,0,0,0,0,0,0,0,0,0,0,0,0,0,0,0,0,0,0,0,0,0,0,0,0,0,0,0,0,0,4.1024,4.1024,0,4.1035,4.1035,4.1035,4.102,4.1019,4.1019,4.1018,4.1024,4.1025,4.1025,0,0,0,0,0,0,0,0,0,0,0,0,0,4.0989,4.099,4.1024,4.1024,4.1024,4.1035,4.1035,4.1035,4.102,4.1019,4.1018,4.1018,4.1024,4.1025,4.1025,0,0,0,0,0,0,0,0,0,0,0,0,0,4.1002,4.099,4.1024,4.1018,4.1018,4.1035,4.1035,4.1035,4.102,4.1019,4.1018,4.1018,4.1023,4.1024,4.1025,4.1047,0,0,4.1028,4.1029,0,0,0,0,0,0,0,0,4.1001,4.1003,4.1019,4.1019,4.1018,4.1025,4.1024,4.1039,4.102,4.1019,4.1018,4.1017,4.1025,4.1025,4.1029,4.1047,4.1048,4.1028,4.1029,4.1029,4.103,0,0,0,0,0,0,0,4.1,4.1003,4.1028,4.1019,4.1019,4.1014,4.1015,4.1027,4.1026,4.1019,4.1018,4.102,4.1024,4.1028,4.1029,4.1048,4.1028,4.1029,4.103,4.103,4.1087,4.1088,0,0,0,0,0,0,4.1001,4.1002,4.1028,4.1028,4.1008,4.1016,4.1017,4.1024,4.1026,4.1025,4.102,4.1019,4.1027,4.1028,4.1029,4.1057,4.1029,4.103,4.1031,4.1086,4.1088,4.1089,0,0,0,0,0,0,4.1,4.1003,4.1027,4.1015,4.1018,4.1017,4.1025,4.1024,4.1028,4.1027,4.1026,4.1025,4.1026,4.1028,4.1044,4.1057,4.1031,4.1032,4.1085,4.1087,4.1088,4.1111,0,0,0,0,0,0,4.0999,4.1003,4.1011,4.1015,4.1019,4.1042,4.1026,4.1025,4.103,4.1029,4.1031,4.103,4.1026,4.1042,4.1045,4.1057,4.1032,4.1084,4.1086,4.1088,4.1109,4.1113,4.1116,0,0,0,0,0,4.0998,4.1016,4.1012,4.1015,4.1029,4.1043,4.1045,4.1041,4.1031,4.104,4.104,4.103,4.1055,4.1044,4.1047,4.106,4.1083,4.1085,4.1087,4.1107,4.1112,4.1116,0,0,0,0,0,0,4.101,4.1016,4.1012,4.1032,4.1038,4.1041,4.1051,4.1045,4.1052,4.105,4.1044,4.1044,4.1062,4.1062,4.105,4.1082,4.1067,4.107,4.1082,4.1086,4.109,4.1089,4.1033,0,0,0,0,0,4.1016,4.1028,4.1031,4.1048,4.1052,4.1051,4.1057,4.1054,4.1059,4.106,4.1061,4.1065,4.1074,4.108,4.1088,4.1109,4.111,4.112,4.1123,4.1126,4.1128,4.1142,4.1147,4.1095,4.1095,4.1095,0,0,4.1026,4.1031,4.1038,4.1051,4.1055,4.1068,4.1053,4.1066,4.1075,4.1062,4.1078,4.1079,4.1083,4.1103,4.1111,4.1103,4.1143,4.1129,4.1131,4.1132,4.1145,4.115,4.1154,4.1097,4.1097,4.1096,0,0,4.1052,4.1056,4.1073,4.1078,4.1086,4.1086,4.109,4.1095,4.1096,4.1112,4.1104,4.1114,4.1129,4.1133,4.1137,4.1169,4.1161,4.1172,4.1191,4.1204,4.1208,4.1212,4.1224,4.1229,4.1174,4.1174,4.1174,0,4.1064,4.1083,4.1081,4.1096,4.1102,4.1094,4.1111,4.1116,4.1124,4.1129,4.1121,4.1142,4.1144,4.1166,4.1174,4.1177,4.1182,4.1171,4.1208,4.1211,4.1215,4.1227,4.1232,4.1176,4.1176,4.1175,4.1175,0,4.1098,4.1112,4.1124,4.1136,4.1144,4.1159,4.1159,4.1167,4.1165,4.1166,4.1184,4.1187,4.1196,4.1201,4.1197,4.1223,4.1218,4.1209,4.1194,4.1221,4.1233,4.1237,4.1178,4.1177,4.1177,4.1176,0,0,4.1129,4.1143,4.1148,4.1155,4.1164,4.1174,4.119,4.1202,4.121,4.1217,4.1231,4.1246,4.1238,4.1243,4.124,4.1251,4.1279,4.1241,4.1241,4.1249,4.131,4.1317,4.1323,4.1274,4.1275,4.1276,4.131,0,4.1156,4.1186,4.1186,4.1213,4.1226,4.1221,4.1235,4.1242,4.1244,4.1255,4.1257,4.1268,4.1257,4.126,4.1272,4.1273,4.1291,4.1271,4.1286,4.1287,4.1286,4.1328,4.1335,4.1367,4.1314,4.1315,4.1315,0,4.1191,4.1203,4.1232,4.1243,4.1249,4.1261,4.1274,4.1285,4.1294,4.1295,4.1302,4.1298,4.1314,4.13,4.1322,4.1309,4.1315,4.1317,4.1318,4.132,4.1303,4.1332,4.1377,4.1382,4.1322,4.1322,4.1321,0,4.1213,4.1236,4.1258,4.1263,4.1276,4.1286,4.1291,4.1299,4.1307,4.1318,4.1324,4.1335,4.1342,4.1351,4.135,4.1339,4.1374,4.1358,4.1375,4.1375,4.1382,4.1382,4.1431,4.1386,4.1386,4.1385,4.1385,0,4.1244,4.1262,4.1268,4.1281,4.1302,4.1303,4.1323,4.1327,4.1335,4.1349,4.1344,4.1357,4.1355,4.1367,4.1367,4.1387,4.1389,4.139,4.139,4.1391,4.1391,4.1395,4.1393,4.1387,4.1386,4.1386,4.1386,0,4.1271,4.1276,4.1299,4.1311,4.1315,4.133,4.1339,4.1352,4.1355,4.1372,4.1376,4.138,4.1396,4.1396,4.1412,4.1412,4.1437,4.1434,4.1435,4.1435,4.1452,4.1451,4.1505,4.1513,4.1463,4.1463,4.1463,0,4.1291,4.1305,4.132,4.133,4.1337,4.1353,4.1362,4.1364,4.1374,4.1388,4.1399,4.1414,4.1426,4.1451,4.1454,4.1468,4.1465,4.1484,4.1467,4.1469,4.1467,4.1467,4.1469,4.1487,4.1487,4.1488,4.1488,0,4.1325,4.1328,4.1343,4.136,4.1372,4.1385,4.1397,4.1405,4.1408,4.142,4.1437,4.1447,4.1466,4.1481,4.1495,4.15,4.1495,4.1494,4.1498,4.15,4.1501,4.1502,4.1445,4.1492,4.1492,4.1491,4.1491,4.1491,4.135,4.1364,4.1378,4.1395,4.1405,4.1417,4.1431,4.1437,4.1452,4.1469,4.1469,4.1488,4.1499,4.1517,4.1524,4.1538,4.1532,4.1538,4.154,4.1542,4.1545,4.1499,4.154,4.154,4.154,4.154,4.154,0,4.1385,4.1395,4.1411,4.143,4.1445,4.1441,4.1455,4.1467,4.1485,4.1496,4.151,4.1531,4.1547,4.1553,4.1569,4.1579,4.1578,4.1584,4.1583,4.1585,4.1549,4.1544,4.1585,4.1585,4.1585,4.1585,4.1585,4.1585,4.1405,4.143,4.1435,4.1464,4.1473,4.1494,4.1503,4.1514,4.1524,4.1548,4.1562,4.1568,4.1577,4.1595,4.1609,4.1611,4.1617,4.1624,4.1625,4.1591,4.1587,4.1582,4.1578,4.1625,4.1625,4.166,4.166,4.166]}]]